Location: Chervonnoye
(48.6000°N, 34.4000°E)
Time: 21:09:34
(UTC+00:00)

RS-44 - Pass Details

Date: 03 December 2021
Orbit: 1175 x 1510 km, 82.5° (Epoch: 19 January)

Event Time Altitude Azimuth Distance (km) Brightness Sun altitude
Rises 17:44:58 0° 199° (SSW) 4,117 ? -38.2°
Reaches altitude 10° 17:47:42 10° 203° (SSW) 3,129 ? -38.6°
Enters shadow 17:50:15 24° 209° (SSW) 2,255 ? -39.0°
Exits shadow 18:03:47 - 8° (N) 3,754 ? -41.2°
Sets 18:04:45 0° 9° (N) 4,102 ? -41.4°
